Regional Weather Roundup
Issued by NWS

Home | Current Version | Previous Version | Text Only | Print | Product List | Glossary Off
Versions: 1 2 3 4 5 6 7 8 9 10 11 12 13 14 15 16 17 18 19 20 21 22 23 24 25 26 27 28 29 30 31 32 33 34 35 36 37 38 39 40 41 42 43 44 45 46 47 48 49 50

000
ASUS43 KDTX 292201
RWRMI
MICHIGAN HOURLY REGIONAL WEATHER ROUNDUP
NATIONAL WEATHER SERVICE DETROIT/PONTIAC MI
600 PM EDT WED JUL 29 2015

NOTE: "FAIR" INDICATES FEW OR NO CLOUDS BELOW 12,000 FEET WITH NO
SIGNIFICANT WEATHER AND/OR OBSTRUCTION TO VISIBILITY.

MIZ047>049-052>055-059>063-066>070-074>076-081>083-292300-
SOUTHEAST LOWER MICHIGAN

CITY           SKY/WX    TMP DP  RH WIND       PRES   REMARKS
ADRIAN         PTSUNNY   78  76  93 S7        29.92F
ALMA           MOSUNNY   84  55  36 W9        29.88F
ANN ARBOR      PTSUNNY   80  74  81 SW7       29.90S
BAD AXE        MOSUNNY   81  74  79 SW9       29.84F
CARO           PTSUNNY   82  75  79 S10       29.84F
DETROIT CITY   PTSUNNY   80  75  84 SW8       29.88F
DETROIT        PTSUNNY   81  74  79 SW12      29.89F
FLINT          MOSUNNY   89  72  56 W23       29.86S HX  96
GROSSE ILE     CLOUDY    81  75  83 SW3       29.89S
HILLSDALE      PTSUNNY   85  74  70 W13       29.93S HX  92
HOWELL         MOSUNNY   87  71  58 W14G22    29.88S HX  92

CITY           SKY/WX    TMP DP  RH WIND       PRES   REMARKS
JACKSON        MOSUNNY   82  72  71 W10       29.92R
LAMBERTVILLE   CLOUDY    77  73  86 W6        29.92F
LANSING        SUNNY     85  61  44 W18G25    29.91R
LAPEER         HVY RAIN  77  76  97 E3        29.86F
MASON          PTSUNNY   82  68  61 W10       29.91R
MONROE         CLOUDY    80  75  85 SW8       29.89S
MT. CLEMENS    PTSUNNY   78  75  90 S8        29.86F
PONTIAC        PTSUNNY   76  74  93 SW12G18   29.88F THUNDER
PORT HOPE        N/A     82  75  79 SW9       29.81F
PORT HURON     CLOUDY    77  75  94 S3        29.87F FOG
TRI CITIES     MOSUNNY   86  66  51 W15       29.86R
MIDLAND        FAIR      87  56  33 W10       29.84S
TROY           PTSUNNY   83  76  79 MISG      29.90F HX  90
SAGINAW HB     MOSUNNY   86  68  54 W17G25    29.84R
$$
MIZ043>046-050>051-056>058-064>065-071>073-077>080-292300-
SOUTHWEST LOWER MICHIGAN

CITY           SKY/WX    TMP DP  RH WIND       PRES   REMARKS
BATTLE CREEK   SUNNY     84  61  45 W14G20    29.94S
BENTON HARBOR  SUNNY     82  62  50 W10       29.95S
BIG RAPIDS     SUNNY     82  44  26 W16       29.89S
COLDWATER      PTSUNNY   83  67  58 NW14      29.94R
FREMONT        FAIR      82  46  28 W14G21    29.90F
HOLLAND        SUNNY     81  62  52 W13G20    29.94S
GRAND RAPIDS   MOSUNNY   84  51  31 W20G28    29.92S
IONIA          FAIR      84  49  29 W17G25    29.90R
KALAMAZOO      SUNNY     84  59  42 NW12      29.94S
LUDINGTON      SUNNY     80  62  53 SW10      29.88S
MARSHALL       MOSUNNY   84  67  56 W12G17    29.93R
MOUNT PLEASANT MOSUNNY   89  54  30 W8G20     29.86S
MUSKEGON       MOSUNNY   82  56  40 W9        29.92S
SOUTH HAVEN    SUNNY     80  62  53 W8        29.95S
$$
MIZ016>042-292300-
NORTHERN LOWER MICHIGAN

CITY           SKY/WX    TMP DP  RH WIND       PRES   REMARKS
ALPENA         SUNNY     90  55  30 SW10      29.78S
BEAVER ISLAND  SUNNY     77  58  51 SW17G25   29.79S
BELLAIRE       SUNNY     84  48  29 SW15G24   29.82S
CADILLAC       SUNNY     82  51  33 SW15G23   29.88S
CHARLEVOIX     SUNNY     82  51  34 W17G29    29.84S
FRANKFORT      SUNNY     79  61  54 SW10G20   29.85S
GAYLORD        SUNNY     84  48  28 SW22      29.84S
GRAYLING       SUNNY     85  49  29 W16       29.85R
HARBOR SPRINGS SUNNY     80  57  45 W12G18    29.81S
HOUGHTON LAKE  SUNNY     84  51  31 W12       29.85F
MANISTEE       SUNNY     82  52  34 SW12G17   29.86F
OSCODA         MOSUNNY   84  73  71 SW13      29.79F HX  90
PELLSTON       SUNNY     82  51  34 W14G33    29.80S
ROGERS CITY    SUNNY     88  53  30 W9G20     29.78S
TRAVERSE CITY  MOSUNNY   86  50  28 W23G37    29.81S
$$
MIZ007>008-015-292300-
EASTERN UPPER MICHIGAN

CITY           SKY/WX    TMP DP  RH WIND       PRES   REMARKS
KINROSS        SUNNY     81  55  41 W15G22    29.77R
MACKINAC ISLAN SUNNY     78  56  45 SW14G26   29.78S
MUNISING         N/A     73  60  63 NE6       29.76S
$$
MIZ004>006-011>014-085-292300-
CENTRAL UPPER MICHIGAN

CITY           SKY/WX    TMP DP  RH WIND       PRES   REMARKS
ESCANABA       MOSUNNY   84  54  34 W22       29.74R
MENOMINEE      MOSUNNY   82  54  36 W8G21     29.79R
SAWYER-GWINN   PTSUNNY   79  52  38 W20G31    29.79R
$$
MIZ001>003-009>011-084-292300-
WESTERN UPPER MICHIGAN

CITY           SKY/WX    TMP DP  RH WIND       PRES   REMARKS
IRON MOUNTAIN  CLOUDY    79  54  41 W17G29    29.81R
HOUGHTON       CLOUDY    71  55  56 W23G40    29.74F
COPPER HARBOR    N/A     73  54  51 NW16G35   29.71S
IRONWOOD       CLOUDY    72  57  60 W15G25    29.79S
$$

ABBREVIATIONS USED IN REMARKS
   TC - TEMPERATURE IN CELSIUS
  WCI - WIND CHILL INDEX
   HX - HEAT INDEX
  VSB - VISIBILITY



USA.gov is the U.S. government's official web portal to all federal, state and local government web resources and services.